EW3719 Weather Reports


Display with metric or nautical units.
time (UTC)temp
F
wind
direction
speed
MPH
gust
MPH
rain 1hr
in
rain 24hr
in
rain mn
in
humidity
%
barometer
mb
20260902160037 78 200 10.0 17.0 0.00 0.00 0.00 83 1014.4
20260902154534 75 225 10.0 19.0 0.00 0.00 0.00 87 1014.4
20260902153031 75 205 8.0 17.0 0.00 0.00 0.00 89 1014.5
20260902151529 75 207 3.0 10.0 0.00 0.00 0.00 89 1014.6
20260902150029 75 162 4.0 10.0 0.00 0.00 0.00 87 1014.6
20260902144535 75 141 4.0 8.0 0.00 0.00 0.00 87 1014.6
20260902143027 75 124 1.0 9.0 0.00 0.00 0.00 89 1014.6
20260902141530 74 129 3.0 7.0 0.00 0.00 0.00 88 1014.8
20260902140032 73 75 0.0 4.0 0.00 0.00 0.00 90 1015.1
20260902134520 72 70 1.0 5.0 0.00 0.00 0.00 92 1015.2
20260902133016 71 121 2.0 6.0 0.00 0.00 0.00 92 1015.4
20260902131514 70 133 0.0 3.0 0.00 0.00 0.00 94 1015.5
20260902130110 69 117 1.0 3.0 0.00 0.00 0.00 96 1015.0
20260902124507 67 100 0.0 1.0 0.00 0.02 0.00 96 1015.5
20260902123005 67 160 0.0 1.0 0.00 0.02 0.00 96 1015.8
20260902121504 67 92 0.0 1.0 0.00 0.02 0.00 96 1015.8
20260902120004 67 65 0.0 2.0 0.00 0.21 0.00 96 1015.7
20260902114503 67 144 0.0 3.0 0.00 0.21 0.00 96 1015.5
20260902113002 67 229 0.0 6.0 0.00 0.21 0.00 96 1015.4
20260902111555 66 150 3.0 6.0 0.00 0.21 0.00 97 1015.0
20260902110054 65 139 2.0 5.0 0.00 0.21 0.00 98 1014.6
20260902104556 65 91 0.0 3.0 0.00 0.22 0.00 98 1014.6
20260902103100 65 81 0.0 2.0 0.00 0.22 0.00 97 1014.9
20260902101548 65 97 0.0 1.0 0.00 0.22 0.00 97 1015.4
20260902100104 65 104 0.0 1.0 0.00 0.22 0.00 97 1015.7
20260902094547 65 100 0.0 2.0 0.00 0.39 0.00 97 1015.7
20260902093046 65 103 0.0 1.0 0.00 0.39 0.00 97 1015.5
20260902091604 65 85 0.0 2.0 0.00 0.39 0.00 97 1015.5
20260902090045 65 83 1.0 3.0 0.00 0.39 0.00 96 1015.5
20260902084545 65 115 0.0 3.0 0.00 0.81 0.00 96 1015.9
20260902083042 65 131 0.0 3.0 0.00 0.81 0.00 96 1016.0
20260902081541 65 135 1.0 3.0 0.00 0.81 0.00 96 1016.0
20260902080055 66 119 0.0 0.0 0.00 0.81 0.00 97 1015.8
20260902074540 66 101 0.0 0.0 0.00 1.29 0.00 97 1015.8
20260902073039 66 147 0.0 0.0 0.00 1.29 0.00 97 1015.8
20260902071554 66 151 0.0 0.0 0.00 1.29 0.00 96 1015.7
20260902070037 66 151 0.0 0.0 0.00 1.29 0.00 96 1015.7
20260902064536 66 151 0.0 0.0 0.00 1.48 0.00 95 1015.7
20260902063043 65 151 0.0 0.0 0.00 1.48 0.00 95 1016.0
20260902061544 64 157 0.0 0.0 0.00 1.48 0.00 93 1016.0
20260902060035 64 145 0.0 0.0 0.00 1.48 0.00 94 1015.8
20260902054541 63 145 0.0 0.0 0.00 1.49 0.00 94 1015.9
20260902053030 64 150 0.0 0.0 0.00 1.49 0.00 93 1015.9
20260902051530 64 151 0.0 0.0 0.00 1.49 0.00 92 1016.0
20260902050032 65 233 0.0 0.0 0.00 1.49 0.00 90 1015.8
20260902044530 65 233 0.0 0.0 0.00 1.49 0.00 89 1015.7
20260902043023 65 233 0.0 0.0 0.00 1.49 0.00 91 1015.7
20260902041531 65 147 0.0 0.0 0.00 1.49 0.00 91 1015.7
20260902040020 65 181 0.0 0.0 0.00 1.49 0.00 90 1015.7
20260902034519 66 74 0.0 0.0 0.00 1.49 1.49 89 1015.5
20260902033018 66 74 0.0 0.0 0.00 1.49 1.49 87 1015.4
20260902031518 67 74 0.0 0.0 0.00 1.49 1.49 85 1015.3
20260902030017 67 82 0.0 0.0 0.00 1.49 1.49 85 1015.3
20260902024516 67 82 0.0 0.0 0.00 1.49 1.49 86 1015.2
20260902023019 67 105 0.0 0.0 0.00 1.49 1.49 86 1015.2
20260902021520 68 83 0.0 0.0 0.00 1.49 1.49 85 1015.3
20260902020015 68 73 0.0 0.0 0.00 1.49 1.49 86 1015.3
20260902014522 68 119 0.0 1.0 0.00 1.49 1.49 85 1015.1
20260902013014 69 44 0.0 2.0 0.00 1.49 1.49 85 1015.0
20260902011521 69 75 0.0 1.0 0.00 1.49 1.49 86 1014.7
20260902010024 70 103 0.0 3.0 0.00 1.49 1.49 85 1014.6
20260902004517 70 37 0.0 5.0 0.00 1.49 1.49 83 1014.6
20260902003012 71 44 0.0 4.0 0.00 1.49 1.49 82 1014.5
20260902001511 72 59 1.0 5.0 0.00 1.49 1.49 82 1014.5
20260902000017 73 62 2.0 7.0 0.00 1.49 1.49 81 1014.3
20260901234511 73 53 3.0 11.0 0.00 1.49 1.49 83 1014.8
20260901233012 74 41 3.0 9.0 0.00 1.49 1.49 86 1014.8
20260901231508 74 28 0.0 2.0 0.00 1.49 1.49 88 1014.6
20260901230014 74 46 0.0 3.0 0.00 1.49 1.49 88 1014.6
20260901224507 74 6 0.0 3.0 0.00 1.49 1.49 87 1014.6
20260901223016 75 355 1.0 3.0 0.00 1.49 1.49 86 1014.5
20260901221506 75 302 1.0 5.0 0.00 1.49 1.49 85 1014.5
20260901220007 75 327 2.0 5.0 0.00 1.49 1.49 84 1014.4
20260901214504 76 325 1.0 4.0 0.00 1.49 1.49 83 1014.3
20260901213004 77 44 2.0 5.0 0.00 1.49 1.49 81 1014.1
20260901211508 77 1 2.0 5.0 0.00 1.49 1.49 80 1014.2
20260901210002 77 39 1.0 5.0 0.00 1.49 1.49 80 1014.2
20260901204601 77 39 2.0 4.0 0.00 1.49 1.49 81 1014.0
20260901203105 76 70 0.0 2.0 0.00 1.49 1.49 83 1014.0
20260901201558 76 65 0.0 4.0 0.00 1.49 1.49 83 1014.0
20260901200106 76 49 1.0 5.0 0.00 1.49 1.49 82 1014.1
20260901194603 77 82 2.0 6.0 0.00 1.49 1.49 80 1014.1
20260901193102 76 69 2.0 5.0 0.00 1.49 1.49 82 1014.2
20260901191555 76 113 0.0 7.0 0.00 1.49 1.49 82 1014.1
20260901190107 76 100 2.0 6.0 0.00 1.49 1.49 82 1014.1
20260901184557 76 74 1.0 7.0 0.00 1.49 1.49 82 1014.1
20260901183053 76 86 2.0 8.0 0.00 1.49 1.49 81 1014.2
20260901181550 75 101 0.0 5.0 0.00 1.49 1.49 83 1014.3
20260901180049 75 81 2.0 5.0 0.00 1.49 1.49 83 1014.3
20260901174558 74 65 5.0 11.0 0.00 1.49 1.49 83 1014.4
20260901173048 74 54 2.0 10.0 0.00 1.49 1.49 86 1014.3
20260901171544 73 72 6.0 13.0 0.00 1.49 1.49 85 1014.1
20260901170129 73 56 7.0 11.0 0.00 1.49 1.49 86 1014.2
20260901164540 73 66 4.0 11.0 0.00 1.49 1.49 87 1014.4
20260901163038 72 91 4.0 9.0 0.00 1.49 1.49 89 1014.4
20260901161537 71 65 5.0 9.0 0.00 1.49 1.49 89 1014.5